Time,TemperatureF,DewpointF,PressureIn,WindDirection,WindDirectionDegrees,WindSpeedMPH,WindSpeedGustMPH,Humidity,HourlyPrecipIn,Conditions,Clouds,dailyrainin,SoftwareType,DateUTC
2013-06-10 00:00:00,67.9,54.4,29.99,East,94,6.0,12.0,62,0.00,,---,0.00,VWS V14.00,2013-06-10 04:00:00,
2013-06-10 00:02:00,67.9,54.4,29.98,East,89,6.0,11.0,62,0.00,,---,0.00,VWS V14.00,2013-06-10 04:02:00,
2013-06-10 00:07:00,67.8,54.3,29.98,East,94,2.0,11.0,62,0.00,,---,0.00,VWS V14.00,2013-06-10 04:07:00,
2013-06-10 00:12:00,67.9,54.0,29.98,East,90,7.0,13.0,61,0.00,,---,0.00,VWS V14.00,2013-06-10 04:12:00,
2013-06-10 00:17:00,68.1,54.2,29.98,ESE,106,2.0,13.0,61,0.00,,---,0.00,VWS V14.00,2013-06-10 04:17:00,
2013-06-10 00:22:00,68.1,53.7,29.98,ESE,118,11.0,13.0,60,0.00,,---,0.00,VWS V14.00,2013-06-10 04:22:00,
2013-06-10 00:27:00,68.2,53.8,29.98,East,93,5.0,6.0,60,0.00,,---,0.00,VWS V14.00,2013-06-10 04:27:00,
2013-06-10 00:30:00,68.2,53.8,29.98,East,92,5.0,13.0,60,0.00,,---,0.00,VWS V14.00,2013-06-10 04:30:00,
2013-06-10 00:32:00,68.2,53.8,29.98,East,101,5.0,9.0,60,0.00,,---,0.00,VWS V14.00,2013-06-10 04:32:00,
2013-06-10 00:37:00,68.3,53.9,29.98,ESE,102,6.0,9.0,60,0.00,,---,0.00,VWS V14.00,2013-06-10 04:37:00,
2013-06-10 00:42:00,68.3,53.9,29.98,East,97,7.0,9.0,60,0.00,,---,0.00,VWS V14.00,2013-06-10 04:42:00,
2013-06-10 00:47:00,68.2,53.3,29.97,East,92,8.0,9.0,59,0.00,,---,0.00,VWS V14.00,2013-06-10 04:47:00,
2013-06-10 00:52:00,68.3,53.0,29.97,ESE,113,7.0,9.0,58,0.00,,---,0.00,VWS V14.00,2013-06-10 04:52:00,
2013-06-10 00:57:00,68.4,53.1,29.97,East,99,6.0,6.0,58,0.00,,---,0.00,VWS V14.00,2013-06-10 04:57:00,
2013-06-10 01:00:00,68.4,53.1,29.97,East,96,6.0,10.0,58,0.00,,---,0.00,VWS V14.00,2013-06-10 05:00:00,
2013-06-10 01:02:00,68.4,53.1,29.97,East,90,4.0,9.0,58,0.00,,---,0.00,VWS V14.00,2013-06-10 05:02:00,
2013-06-10 01:07:00,68.3,53.0,29.97,East,94,5.0,11.0,58,0.00,,---,0.00,VWS V14.00,2013-06-10 05:07:00,
2013-06-10 01:12:00,68.3,53.0,29.96,East,90,5.0,11.0,58,0.00,,---,0.00,VWS V14.00,2013-06-10 05:12:00,
2013-06-10 01:17:00,68.2,53.3,29.96,ESE,103,5.0,11.0,59,0.00,,---,0.00,VWS V14.00,2013-06-10 05:17:00,
2013-06-10 01:22:00,67.9,53.1,29.96,East,89,4.0,11.0,59,0.00,,---,0.00,VWS V14.00,2013-06-10 05:22:00,
2013-06-10 01:27:00,67.8,53.4,29.96,ESE,107,5.0,6.0,60,0.00,,---,0.00,VWS V14.00,2013-06-10 05:27:00,
2013-06-10 01:30:00,67.8,53.4,29.96,ESE,107,5.0,11.0,60,0.00,,---,0.00,VWS V14.00,2013-06-10 05:30:00,
2013-06-10 01:32:00,67.7,53.3,29.96,ESE,109,5.0,8.0,60,0.00,,---,0.00,VWS V14.00,2013-06-10 05:32:00,
2013-06-10 01:37:00,67.7,53.3,29.96,ESE,121,6.0,12.0,60,0.00,,---,0.00,VWS V14.00,2013-06-10 05:37:00,
2013-06-10 01:42:00,67.7,53.3,29.96,ESE,103,12.0,12.0,60,0.00,,---,0.00,VWS V14.00,2013-06-10 05:42:00,
2013-06-10 01:47:00,67.8,53.4,29.96,ESE,121,7.0,14.0,60,0.00,,---,0.00,VWS V14.00,2013-06-10 05:47:00,
2013-06-10 01:52:00,67.8,53.4,29.96,ESE,123,7.0,14.0,60,0.00,,---,0.00,VWS V14.00,2013-06-10 05:52:00,
2013-06-10 01:57:00,67.7,53.3,29.96,ESE,113,6.0,8.0,60,0.00,,---,0.00,VWS V14.00,2013-06-10 05:57:00,
2013-06-10 02:00:00,67.7,53.3,29.96,ESE,106,6.0,14.0,60,0.00,,---,0.00,VWS V14.00,2013-06-10 06:00:00,
2013-06-10 02:02:00,67.6,53.2,29.96,East,94,6.0,11.0,60,0.00,,---,0.00,VWS V14.00,2013-06-10 06:02:00,
2013-06-10 02:07:00,67.5,53.1,29.96,SSE,149,5.0,12.0,60,0.00,,---,0.00,VWS V14.00,2013-06-10 06:07:00,
2013-06-10 02:13:00,67.5,53.6,29.96,ESE,119,7.0,12.0,61,0.00,,---,0.00,VWS V14.00,2013-06-10 06:13:00,
2013-06-10 02:18:00,67.4,53.5,29.95,SSE,148,4.0,12.0,61,0.00,,---,0.00,VWS V14.00,2013-06-10 06:18:00,
2013-06-10 02:23:00,67.3,53.4,29.95,ESE,102,7.0,14.0,61,0.00,,---,0.00,VWS V14.00,2013-06-10 06:23:00,
2013-06-10 02:28:00,67.2,53.3,29.95,ESE,103,6.0,6.0,61,0.00,,---,0.00,VWS V14.00,2013-06-10 06:28:00,
2013-06-10 02:30:00,67.2,53.3,29.95,ESE,115,6.0,14.0,61,0.00,,---,0.00,VWS V14.00,2013-06-10 06:30:00,
2013-06-10 02:33:00,67.0,53.6,29.95,ESE,111,5.0,9.0,62,0.00,,---,0.00,VWS V14.00,2013-06-10 06:33:00,
2013-06-10 02:38:00,66.8,53.4,29.94,ESE,105,4.0,9.0,62,0.00,,---,0.00,VWS V14.00,2013-06-10 06:38:00,
2013-06-10 02:43:00,66.7,53.3,29.94,ESE,104,5.0,9.0,62,0.00,,---,0.00,VWS V14.00,2013-06-10 06:43:00,
2013-06-10 02:48:00,66.6,53.2,29.94,ESE,114,4.0,11.0,62,0.00,,---,0.00,VWS V14.00,2013-06-10 06:48:00,
2013-06-10 02:53:00,66.5,53.5,29.94,ESE,119,4.0,11.0,63,0.00,,---,0.00,VWS V14.00,2013-06-10 06:53:00,
2013-06-10 02:58:00,66.4,53.4,29.94,ESE,111,6.0,6.0,63,0.00,,---,0.00,VWS V14.00,2013-06-10 06:58:00,
2013-06-10 03:00:00,66.4,53.4,29.94,ESE,114,4.0,11.0,63,0.00,,---,0.00,VWS V14.00,2013-06-10 07:00:00,
2013-06-10 03:03:00,66.4,53.4,29.94,ESE,113,5.0,8.0,63,0.00,,---,0.00,VWS V14.00,2013-06-10 07:03:00,
2013-06-10 03:08:00,66.4,53.4,29.94,ESE,111,4.0,8.0,63,0.00,,---,0.00,VWS V14.00,2013-06-10 07:08:00,
2013-06-10 03:13:00,66.4,53.4,29.94,ESE,114,5.0,9.0,63,0.00,,---,0.00,VWS V14.00,2013-06-10 07:13:00,
2013-06-10 03:18:00,66.3,53.3,29.93,East,88,4.0,10.0,63,0.00,,---,0.00,VWS V14.00,2013-06-10 07:18:00,
2013-06-10 03:23:00,66.3,53.3,29.93,ESE,113,2.0,10.0,63,0.00,,---,0.00,VWS V14.00,2013-06-10 07:23:00,
2013-06-10 03:28:00,66.2,53.2,29.93,ESE,113,4.0,5.0,63,0.00,,---,0.00,VWS V14.00,2013-06-10 07:28:00,
2013-06-10 03:30:00,66.2,53.2,29.93,ESE,113,4.0,10.0,63,0.00,,---,0.00,VWS V14.00,2013-06-10 07:30:00,
2013-06-10 03:33:00,66.2,53.2,29.93,ESE,115,4.0,9.0,63,0.00,,---,0.00,VWS V14.00,2013-06-10 07:33:00,
2013-06-10 03:38:00,66.1,53.2,29.93,ESE,112,5.0,9.0,63,0.00,,---,0.00,VWS V14.00,2013-06-10 07:38:00,
2013-06-10 03:43:00,66.0,53.5,29.93,ESE,111,4.0,9.0,64,0.00,,---,0.00,VWS V14.00,2013-06-10 07:43:00,
2013-06-10 03:48:00,65.9,53.4,29.93,ESE,105,4.0,9.0,64,0.00,,---,0.00,VWS V14.00,2013-06-10 07:48:00,
2013-06-10 03:53:00,65.9,53.4,29.93,ESE,105,5.0,9.0,64,0.00,,---,0.00,VWS V14.00,2013-06-10 07:53:00,
2013-06-10 03:58:00,65.9,53.8,29.93,East,100,6.0,6.0,65,0.00,,---,0.00,VWS V14.00,2013-06-10 07:58:00,
2013-06-10 04:00:00,65.9,53.8,29.93,ESE,105,5.0,9.0,65,0.00,,---,0.00,VWS V14.00,2013-06-10 08:00:00,
2013-06-10 04:03:00,65.8,53.7,29.93,SE,133,7.0,10.0,65,0.00,,---,0.00,VWS V14.00,2013-06-10 08:03:00,
2013-06-10 04:08:00,65.6,54.0,29.93,ESE,120,6.0,17.0,66,0.00,,---,0.00,VWS V14.00,2013-06-10 08:08:00,
2013-06-10 04:13:00,65.3,54.1,29.93,SE,132,2.0,17.0,67,0.00,,---,0.00,VWS V14.00,2013-06-10 08:13:00,
2013-06-10 04:18:00,65.1,54.3,29.93,SE,125,8.0,17.0,68,0.00,,---,0.00,VWS V14.00,2013-06-10 08:18:00,
2013-06-10 04:23:00,64.9,54.5,29.92,ESE,111,9.0,17.0,69,0.00,,---,0.00,VWS V14.00,2013-06-10 08:23:00,
2013-06-10 04:28:00,64.6,54.6,29.92,ESE,111,9.0,9.0,70,0.00,,---,0.00,VWS V14.00,2013-06-10 08:28:00,
2013-06-10 04:30:00,64.7,54.7,29.92,ESE,122,6.0,17.0,70,0.00,,---,0.00,VWS V14.00,2013-06-10 08:30:00,
2013-06-10 04:33:00,64.3,55.1,29.92,ESE,115,9.0,11.0,72,0.00,,---,0.00,VWS V14.00,2013-06-10 08:33:00,
2013-06-10 04:38:00,63.6,55.2,29.92,East,98,5.0,11.0,74,0.00,,---,0.00,VWS V14.00,2013-06-10 08:38:00,
2013-06-10 04:43:00,63.0,55.7,29.92,ESE,111,5.0,11.0,77,0.00,,---,0.00,VWS V14.00,2013-06-10 08:43:00,
2013-06-10 04:48:00,62.3,55.7,29.92,ESE,115,7.0,11.0,79,0.01,,---,0.01,VWS V14.00,2013-06-10 08:48:00,
2013-06-10 04:53:00,61.7,55.8,29.92,SE,127,11.0,11.0,81,0.02,,---,0.02,VWS V14.00,2013-06-10 08:53:00,
2013-06-10 04:58:00,61.2,56.0,29.92,SE,140,8.0,8.0,83,0.02,,---,0.02,VWS V14.00,2013-06-10 08:58:00,
2013-06-10 05:00:00,61.3,56.1,29.92,ESE,106,5.0,11.0,83,0.02,,---,0.02,VWS V14.00,2013-06-10 09:00:00,
2013-06-10 05:03:00,60.9,56.0,29.92,East,95,5.0,8.0,84,0.02,,---,0.02,VWS V14.00,2013-06-10 09:03:00,
2013-06-10 05:08:00,60.6,56.1,29.92,ESE,122,5.0,11.0,85,0.02,,---,0.02,VWS V14.00,2013-06-10 09:08:00,
2013-06-10 05:13:00,60.4,56.5,29.92,ESE,108,5.0,11.0,87,0.02,,---,0.02,VWS V14.00,2013-06-10 09:13:00,
2013-06-10 05:18:00,60.2,56.6,29.91,East,96,2.0,11.0,88,0.03,,---,0.03,VWS V14.00,2013-06-10 09:18:00,
2013-06-10 05:23:00,60.0,56.8,29.91,East,96,4.0,11.0,89,0.03,,---,0.03,VWS V14.00,2013-06-10 09:23:00,
2013-06-10 05:28:00,59.9,56.7,29.90,East,96,2.0,4.0,89,0.03,,---,0.03,VWS V14.00,2013-06-10 09:28:00,
2013-06-10 05:30:00,59.9,56.7,29.91,East,97,1.0,11.0,89,0.03,,---,0.03,VWS V14.00,2013-06-10 09:30:00,
2013-06-10 05:33:00,59.8,56.9,29.91,East,96,1.0,5.0,90,0.03,,---,0.03,VWS V14.00,2013-06-10 09:33:00,
2013-06-10 05:38:00,59.6,56.7,29.91,East,96,5.0,7.0,90,0.03,,---,0.03,VWS V14.00,2013-06-10 09:38:00,
2013-06-10 05:43:00,59.5,56.9,29.90,ESE,111,6.0,8.0,91,0.03,,---,0.03,VWS V14.00,2013-06-10 09:43:00,
2013-06-10 05:48:00,59.5,56.9,29.90,East,95,5.0,8.0,91,0.03,,---,0.03,VWS V14.00,2013-06-10 09:48:00,
2013-06-10 05:53:00,59.4,57.1,29.90,East,101,2.0,8.0,92,0.03,,---,0.03,VWS V14.00,2013-06-10 09:53:00,
2013-06-10 05:58:00,59.4,57.1,29.91,East,100,6.0,6.0,92,0.01,,---,0.03,VWS V14.00,2013-06-10 09:58:00,
2013-06-10 06:00:00,59.4,57.1,29.90,East,101,6.0,8.0,92,0.03,,---,0.03,VWS V14.00,2013-06-10 10:00:00,
2013-06-10 06:03:00,59.4,57.1,29.91,ESE,115,5.0,9.0,92,0.01,,---,0.03,VWS V14.00,2013-06-10 10:03:00,
2013-06-10 06:08:00,59.4,57.1,29.90,ESE,109,1.0,9.0,92,0.01,,---,0.03,VWS V14.00,2013-06-10 10:08:00,
2013-06-10 06:13:00,59.4,57.1,29.91,ESE,109,4.0,9.0,92,0.02,,---,0.04,VWS V14.00,2013-06-10 10:13:00,
2013-06-10 06:18:00,59.4,57.4,29.91,ESE,109,4.0,9.0,93,0.03,,---,0.05,VWS V14.00,2013-06-10 10:18:00,
2013-06-10 06:23:00,59.4,57.4,29.90,ESE,109,2.0,9.0,93,0.04,,---,0.06,VWS V14.00,2013-06-10 10:23:00,
2013-06-10 06:28:00,59.3,57.3,29.90,ESE,109,2.0,4.0,93,0.04,,---,0.07,VWS V14.00,2013-06-10 10:28:00,
2013-06-10 06:30:00,59.3,57.3,29.90,ESE,109,1.0,9.0,93,0.05,,---,0.07,VWS V14.00,2013-06-10 10:30:00,
2013-06-10 06:33:00,59.3,57.3,29.90,ESE,109,0.0,4.0,93,0.05,,---,0.08,VWS V14.00,2013-06-10 10:33:00,
2013-06-10 06:38:00,59.4,57.4,29.90,ESE,109,0.0,4.0,93,0.05,,---,0.08,VWS V14.00,2013-06-10 10:38:00,
2013-06-10 06:43:00,59.4,57.4,29.89,ESE,109,0.0,4.0,93,0.05,,---,0.08,VWS V14.00,2013-06-10 10:43:00,
2013-06-10 06:48:00,59.4,57.4,29.89,ESE,109,0.0,4.0,93,0.05,,---,0.08,VWS V14.00,2013-06-10 10:48:00,
2013-06-10 06:53:00,59.5,57.8,29.89,ESE,109,0.0,4.0,94,0.05,,---,0.08,VWS V14.00,2013-06-10 10:53:00,
2013-06-10 06:58:00,59.5,57.8,29.90,ESE,109,0.0,0.0,94,0.05,,---,0.08,VWS V14.00,2013-06-10 10:58:00,
2013-06-10 07:00:00,59.5,57.8,29.90,ESE,109,0.0,4.0,94,0.05,,---,0.08,VWS V14.00,2013-06-10 11:00:00,
2013-06-10 07:03:00,59.6,57.9,29.90,ESE,109,0.0,1.0,94,0.05,,---,0.08,VWS V14.00,2013-06-10 11:03:00,
2013-06-10 07:08:00,59.6,57.9,29.89,ESE,109,0.0,1.0,94,0.05,,---,0.08,VWS V14.00,2013-06-10 11:08:00,
2013-06-10 07:13:00,59.7,58.0,29.89,ESE,109,0.0,4.0,94,0.05,,---,0.08,VWS V14.00,2013-06-10 11:13:00,
2013-06-10 07:18:00,59.8,58.1,29.90,ESE,109,0.0,4.0,94,0.05,,---,0.08,VWS V14.00,2013-06-10 11:18:00,
2013-06-10 07:23:00,59.9,58.2,29.90,ESE,109,0.0,4.0,94,0.05,,---,0.08,VWS V14.00,2013-06-10 11:23:00,
2013-06-10 07:28:00,59.9,58.2,29.89,ESE,109,0.0,0.0,94,0.01,,---,0.08,VWS V14.00,2013-06-10 11:28:00,
2013-06-10 07:30:00,59.9,58.2,29.89,ESE,109,0.0,4.0,94,0.05,,---,0.08,VWS V14.00,2013-06-10 11:30:00,
2013-06-10 07:33:00,60.1,58.4,29.89,ESE,109,1.0,4.0,94,0.02,,---,0.09,VWS V14.00,2013-06-10 11:33:00,
2013-06-10 07:38:00,60.2,58.5,29.89,ESE,109,0.0,4.0,94,0.03,,---,0.10,VWS V14.00,2013-06-10 11:38:00,
2013-06-10 07:43:00,60.2,58.5,29.89,ESE,109,0.0,4.0,94,0.04,,---,0.11,VWS V14.00,2013-06-10 11:43:00,
2013-06-10 07:48:00,60.3,58.6,29.88,ENE,67,0.0,5.0,94,0.04,,---,0.11,VWS V14.00,2013-06-10 11:48:00,
2013-06-10 07:53:00,60.3,58.6,29.88,ENE,67,0.0,5.0,94,0.04,,---,0.11,VWS V14.00,2013-06-10 11:53:00,
2013-06-10 07:58:00,60.4,58.7,29.88,ENE,67,0.0,2.0,94,0.03,,---,0.11,VWS V14.00,2013-06-10 11:58:00,
2013-06-10 08:00:00,60.4,58.7,29.88,ENE,67,1.0,5.0,94,0.04,,---,0.11,VWS V14.00,2013-06-10 12:00:00,
2013-06-10 08:03:00,60.5,58.8,29.88,ENE,59,0.0,3.0,94,0.03,,---,0.11,VWS V14.00,2013-06-10 12:03:00,
2013-06-10 08:08:00,60.5,58.8,29.87,NE,45,2.0,6.0,94,0.04,,---,0.12,VWS V14.00,2013-06-10 12:08:00,
2013-06-10 08:13:00,60.5,58.8,29.87,NE,46,2.0,6.0,94,0.04,,---,0.12,VWS V14.00,2013-06-10 12:13:00,
2013-06-10 08:18:00,60.6,58.9,29.87,NE,49,0.0,6.0,94,0.04,,---,0.12,VWS V14.00,2013-06-10 12:18:00,
2013-06-10 08:23:00,60.7,59.0,29.87,NE,49,1.0,6.0,94,0.04,,---,0.12,VWS V14.00,2013-06-10 12:23:00,
2013-06-10 08:28:00,60.9,59.2,29.87,NE,35,2.0,3.0,94,0.04,,---,0.12,VWS V14.00,2013-06-10 12:28:00,
2013-06-10 08:30:00,60.8,59.1,29.86,NE,34,0.0,6.0,94,0.04,,---,0.12,VWS V14.00,2013-06-10 12:30:00,
2013-06-10 08:33:00,61.1,59.4,29.87,NE,38,2.0,4.0,94,0.04,,---,0.12,VWS V14.00,2013-06-10 12:33:00,
2013-06-10 08:38:00,61.3,59.6,29.87,East,94,5.0,7.0,94,0.04,,---,0.12,VWS V14.00,2013-06-10 12:38:00,
2013-06-10 08:43:00,61.4,59.7,29.87,East,93,4.0,7.0,94,0.04,,---,0.12,VWS V14.00,2013-06-10 12:43:00,
2013-06-10 08:48:00,61.6,59.9,29.86,ENE,57,2.0,7.0,94,0.04,,---,0.12,VWS V14.00,2013-06-10 12:48:00,
2013-06-10 08:54:00,61.8,60.1,29.86,ENE,59,4.0,7.0,94,0.04,,---,0.12,VWS V14.00,2013-06-10 12:54:00,
2013-06-10 08:59:00,61.9,60.2,29.87,ENE,64,3.0,5.0,94,0.01,,---,0.12,VWS V14.00,2013-06-10 12:59:00,
2013-06-10 09:00:00,61.9,60.2,29.86,ENE,65,3.0,7.0,94,0.04,,---,0.12,VWS V14.00,2013-06-10 13:00:00,
2013-06-10 09:04:00,62.0,60.3,29.86,East,91,5.0,8.0,94,0.01,,---,0.12,VWS V14.00,2013-06-10 13:04:00,
2013-06-10 09:09:00,62.2,60.5,29.86,East,86,5.0,8.0,94,0.01,,---,0.12,VWS V14.00,2013-06-10 13:09:00,
2013-06-10 09:14:00,62.3,60.6,29.86,East,86,3.0,8.0,94,0.01,,---,0.12,VWS V14.00,2013-06-10 13:14:00,
2013-06-10 09:19:00,62.4,60.7,29.86,East,90,5.0,8.0,94,0.01,,---,0.12,VWS V14.00,2013-06-10 13:19:00,
2013-06-10 09:24:00,62.5,60.8,29.85,East,84,2.0,8.0,94,0.01,,---,0.12,VWS V14.00,2013-06-10 13:24:00,
2013-06-10 09:29:00,62.7,61.0,29.85,East,82,5.0,8.0,94,0.00,,---,0.12,VWS V14.00,2013-06-10 13:29:00,
2013-06-10 09:30:00,62.6,60.8,29.85,ENE,65,4.0,8.0,94,0.01,,---,0.12,VWS V14.00,2013-06-10 13:30:00,
2013-06-10 09:34:00,62.9,61.5,29.85,East,90,2.0,8.0,95,0.00,,---,0.12,VWS V14.00,2013-06-10 13:34:00,
2013-06-10 09:39:00,63.1,61.7,29.85,East,90,5.0,8.0,95,0.00,,---,0.12,VWS V14.00,2013-06-10 13:39:00,
2013-06-10 09:44:00,63.3,61.5,29.85,East,91,5.0,8.0,94,0.00,,---,0.12,VWS V14.00,2013-06-10 13:44:00,
2013-06-10 09:49:00,63.5,62.0,29.85,East,85,2.0,9.0,95,0.00,,---,0.12,VWS V14.00,2013-06-10 13:49:00,
2013-06-10 09:54:00,63.7,62.0,29.84,East,90,5.0,9.0,94,0.00,,---,0.12,VWS V14.00,2013-06-10 13:54:00,
2013-06-10 09:59:00,63.8,62.0,29.85,ESE,107,6.0,8.0,94,0.00,,---,0.12,VWS V14.00,2013-06-10 13:59:00,
2013-06-10 10:00:00,63.8,62.0,29.85,East,92,4.0,9.0,94,0.00,,---,0.12,VWS V14.00,2013-06-10 14:00:00,
2013-06-10 10:04:00,63.8,62.0,29.85,East,88,11.0,12.0,94,0.00,,---,0.12,VWS V14.00,2013-06-10 14:04:00,
2013-06-10 10:09:00,63.8,61.7,29.85,East,97,8.0,12.0,93,0.00,,---,0.12,VWS V14.00,2013-06-10 14:09:00,
2013-06-10 10:14:00,63.9,61.8,29.85,East,94,5.0,12.0,93,0.00,,---,0.12,VWS V14.00,2013-06-10 14:14:00,
2013-06-10 10:19:00,64.0,61.9,29.86,ESE,109,4.0,12.0,93,0.00,,---,0.12,VWS V14.00,2013-06-10 14:19:00,
2013-06-10 10:24:00,64.1,62.0,29.86,ESE,113,4.0,12.0,93,0.00,,---,0.12,VWS V14.00,2013-06-10 14:24:00,
2013-06-10 10:29:00,64.1,62.0,29.85,East,99,6.0,9.0,93,0.01,,---,0.13,VWS V14.00,2013-06-10 14:29:00,
2013-06-10 10:30:00,64.1,62.0,29.85,ESE,103,9.0,12.0,93,0.01,,---,0.13,VWS V14.00,2013-06-10 14:30:00,
2013-06-10 10:34:00,64.2,62.1,29.84,East,88,5.0,11.0,93,0.01,,---,0.13,VWS V14.00,2013-06-10 14:34:00,
2013-06-10 10:39:00,64.2,62.1,29.84,East,101,7.0,11.0,93,0.01,,---,0.13,VWS V14.00,2013-06-10 14:39:00,
2013-06-10 10:44:00,64.1,62.0,29.84,East,93,5.0,11.0,93,0.01,,---,0.13,VWS V14.00,2013-06-10 14:44:00,
2013-06-10 10:49:00,64.3,62.2,29.84,East,92,4.0,11.0,93,0.01,,---,0.13,VWS V14.00,2013-06-10 14:49:00,
2013-06-10 10:54:00,64.4,62.3,29.84,East,92,1.0,11.0,93,0.01,,---,0.13,VWS V14.00,2013-06-10 14:54:00,
2013-06-10 10:59:00,64.4,62.3,29.84,East,96,4.0,6.0,93,0.01,,---,0.13,VWS V14.00,2013-06-10 14:59:00,
2013-06-10 11:00:00,64.4,62.3,29.84,East,93,4.0,11.0,93,0.01,,---,0.13,VWS V14.00,2013-06-10 15:00:00,
2013-06-10 11:04:00,64.4,62.3,29.85,East,96,0.0,6.0,93,0.01,,---,0.13,VWS V14.00,2013-06-10 15:04:00,
2013-06-10 11:09:00,64.5,62.4,29.85,East,96,4.0,6.0,93,0.01,,---,0.13,VWS V14.00,2013-06-10 15:09:00,
2013-06-10 11:14:00,64.4,62.3,29.85,East,96,4.0,6.0,93,0.01,,---,0.13,VWS V14.00,2013-06-10 15:14:00,
2013-06-10 11:19:00,64.6,62.5,29.85,East,95,0.0,6.0,93,0.01,,---,0.13,VWS V14.00,2013-06-10 15:19:00,
2013-06-10 11:24:00,64.7,62.6,29.85,East,96,4.0,6.0,93,0.01,,---,0.13,VWS V14.00,2013-06-10 15:24:00,
2013-06-10 11:29:00,64.8,62.7,29.84,East,95,4.0,5.0,93,0.00,,---,0.13,VWS V14.00,2013-06-10 15:29:00,
2013-06-10 11:30:00,64.7,62.6,29.85,East,95,0.0,6.0,93,0.01,,---,0.13,VWS V14.00,2013-06-10 15:30:00,
2013-06-10 11:34:00,64.9,62.8,29.84,East,95,1.0,5.0,93,0.00,,---,0.13,VWS V14.00,2013-06-10 15:34:00,
2013-06-10 11:39:00,65.0,62.9,29.84,East,96,4.0,5.0,93,0.00,,---,0.13,VWS V14.00,2013-06-10 15:39:00,
2013-06-10 11:44:00,65.1,63.0,29.84,East,96,4.0,6.0,93,0.00,,---,0.13,VWS V14.00,2013-06-10 15:44:00,
2013-06-10 11:49:00,65.2,63.1,29.84,East,96,0.0,6.0,93,0.00,,---,0.13,VWS V14.00,2013-06-10 15:49:00,
2013-06-10 11:54:00,65.4,63.3,29.84,NE,56,1.0,7.0,93,0.00,,---,0.13,VWS V14.00,2013-06-10 15:54:00,
2013-06-10 11:59:00,65.4,63.3,29.84,NE,55,0.0,2.0,93,0.00,,---,0.13,VWS V14.00,2013-06-10 15:59:00,
2013-06-10 12:00:00,65.4,63.3,29.84,NE,55,2.0,7.0,93,0.00,,---,0.13,VWS V14.00,2013-06-10 16:00:00,
2013-06-10 12:04:00,65.5,63.1,29.84,NE,56,0.0,3.0,92,0.00,,---,0.13,VWS V14.00,2013-06-10 16:04:00,
2013-06-10 12:09:00,65.7,63.3,29.84,ENE,67,3.0,5.0,92,0.00,,---,0.13,VWS V14.00,2013-06-10 16:09:00,
2013-06-10 12:14:00,65.8,63.7,29.84,ENE,67,1.0,5.0,93,0.00,,---,0.13,VWS V14.00,2013-06-10 16:14:00,
2013-06-10 12:19:00,65.9,63.5,29.83,ENE,67,1.0,5.0,92,0.00,,---,0.13,VWS V14.00,2013-06-10 16:19:00,
2013-06-10 12:24:00,65.9,63.5,29.84,ENE,67,2.0,5.0,92,0.00,,---,0.13,VWS V14.00,2013-06-10 16:24:00,
2013-06-10 12:29:00,66.0,63.9,29.83,ENE,67,0.0,2.0,93,0.00,,---,0.13,VWS V14.00,2013-06-10 16:29:00,
2013-06-10 12:30:00,65.9,63.5,29.84,ENE,67,0.0,5.0,92,0.00,,---,0.13,VWS V14.00,2013-06-10 16:30:00,
2013-06-10 12:34:00,66.1,63.7,29.83,ENE,74,2.0,7.0,92,0.00,,---,0.13,VWS V14.00,2013-06-10 16:34:00,
2013-06-10 12:39:00,66.1,63.7,29.83,East,89,4.0,7.0,92,0.01,,---,0.14,VWS V14.00,2013-06-10 16:39:00,
2013-06-10 12:44:00,66.2,64.1,29.83,East,89,3.0,7.0,93,0.01,,---,0.14,VWS V14.00,2013-06-10 16:44:00,
2013-06-10 12:49:00,66.0,63.6,29.83,East,91,5.0,7.0,92,0.01,,---,0.14,VWS V14.00,2013-06-10 16:49:00,
2013-06-10 12:54:00,66.0,63.9,29.83,East,91,0.0,7.0,93,0.01,,---,0.14,VWS V14.00,2013-06-10 16:54:00,
2013-06-10 12:59:00,66.1,64.0,29.83,ENE,76,2.0,4.0,93,0.01,,---,0.14,VWS V14.00,2013-06-10 16:59:00,
2013-06-10 13:00:00,66.0,63.6,29.83,ENE,76,3.0,7.0,92,0.01,,---,0.14,VWS V14.00,2013-06-10 17:00:00,
2013-06-10 13:04:00,66.3,64.2,29.83,ENE,77,2.0,5.0,93,0.01,,---,0.14,VWS V14.00,2013-06-10 17:04:00,
2013-06-10 13:09:00,66.3,64.2,29.83,East,89,3.0,6.0,93,0.01,,---,0.14,VWS V14.00,2013-06-10 17:09:00,
2013-06-10 13:14:00,66.4,64.3,29.82,East,89,0.0,6.0,93,0.01,,---,0.14,VWS V14.00,2013-06-10 17:14:00,
2013-06-10 13:19:00,66.5,64.4,29.82,East,88,2.0,6.0,93,0.01,,---,0.14,VWS V14.00,2013-06-10 17:19:00,
2013-06-10 13:24:00,66.5,64.4,29.82,East,88,3.0,6.0,93,0.01,,---,0.14,VWS V14.00,2013-06-10 17:24:00,
2013-06-10 13:29:00,66.4,64.0,29.82,East,88,2.0,4.0,92,0.01,,---,0.14,VWS V14.00,2013-06-10 17:29:00,
2013-06-10 13:30:00,66.5,64.4,29.82,East,88,1.0,6.0,93,0.01,,---,0.14,VWS V14.00,2013-06-10 17:30:00,
2013-06-10 13:34:00,66.4,64.0,29.82,East,88,0.0,4.0,92,0.01,,---,0.14,VWS V14.00,2013-06-10 17:34:00,
2013-06-10 13:39:00,66.4,64.3,29.82,East,88,0.0,4.0,93,0.01,,---,0.14,VWS V14.00,2013-06-10 17:39:00,
2013-06-10 13:44:00,66.5,64.4,29.82,East,88,1.0,4.0,93,0.01,,---,0.14,VWS V14.00,2013-06-10 17:44:00,
2013-06-10 13:49:00,66.4,64.3,29.82,East,88,0.0,4.0,93,0.03,,---,0.16,VWS V14.00,2013-06-10 17:49:00,
2013-06-10 13:54:00,66.4,64.3,29.82,East,88,0.0,4.0,93,0.09,,---,0.22,VWS V14.00,2013-06-10 17:54:00,
2013-06-10 13:59:00,66.1,64.0,29.82,NNE,14,5.0,7.0,93,0.10,,---,0.24,VWS V14.00,2013-06-10 17:59:00,
2013-06-10 14:00:00,66.3,64.2,29.82,East,89,0.0,4.0,93,0.10,,---,0.23,VWS V14.00,2013-06-10 18:00:00,
2013-06-10 14:04:00,65.4,63.3,29.82,North,5,0.0,7.0,93,0.10,,---,0.24,VWS V14.00,2013-06-10 18:04:00,
2013-06-10 14:09:00,65.0,62.9,29.82,NE,34,4.0,7.0,93,0.10,,---,0.24,VWS V14.00,2013-06-10 18:09:00,
2013-06-10 14:14:00,64.7,62.6,29.82,North,360,4.0,7.0,93,0.10,,---,0.24,VWS V14.00,2013-06-10 18:14:00,
2013-06-10 14:19:00,64.4,62.3,29.82,NE,41,1.0,7.0,93,0.10,,---,0.24,VWS V14.00,2013-06-10 18:19:00,
2013-06-10 14:24:00,64.4,62.6,29.81,NNE,26,0.0,7.0,94,0.10,,---,0.24,VWS V14.00,2013-06-10 18:24:00,
2013-06-10 14:29:00,64.3,62.5,29.81,NNE,26,0.0,4.0,94,0.10,,---,0.24,VWS V14.00,2013-06-10 18:29:00,
2013-06-10 14:30:00,64.3,62.5,29.81,NNE,26,3.0,7.0,94,0.10,,---,0.24,VWS V14.00,2013-06-10 18:30:00,
2013-06-10 14:34:00,64.3,62.5,29.81,NNE,26,0.0,4.0,94,0.10,,---,0.24,VWS V14.00,2013-06-10 18:34:00,
2013-06-10 14:39:00,64.6,62.8,29.81,NNE,26,1.0,4.0,94,0.10,,---,0.24,VWS V14.00,2013-06-10 18:39:00,
2013-06-10 14:44:00,64.8,63.0,29.81,NNE,26,2.0,4.0,94,0.10,,---,0.24,VWS V14.00,2013-06-10 18:44:00,
2013-06-10 14:50:00,64.9,63.4,29.80,NNE,26,0.0,4.0,95,0.10,,---,0.24,VWS V14.00,2013-06-10 18:50:00,
2013-06-10 14:55:00,65.0,63.2,29.80,North,5,2.0,5.0,94,0.10,,---,0.24,VWS V14.00,2013-06-10 18:55:00,
2013-06-10 15:00:00,65.1,63.3,29.80,North,9,1.0,4.0,94,0.01,,---,0.24,VWS V14.00,2013-06-10 19:00:00,
2013-06-10 15:05:00,65.2,63.4,29.80,North,5,6.0,6.0,94,0.01,,---,0.24,VWS V14.00,2013-06-10 19:05:00,
2013-06-10 15:10:00,65.2,63.4,29.80,North,9,1.0,6.0,94,0.01,,---,0.24,VWS V14.00,2013-06-10 19:10:00,
2013-06-10 15:15:00,65.1,63.3,29.80,North,10,3.0,6.0,94,0.01,,---,0.24,VWS V14.00,2013-06-10 19:15:00,
2013-06-10 15:20:00,64.9,63.1,29.80,North,5,1.0,6.0,94,0.01,,---,0.24,VWS V14.00,2013-06-10 19:20:00,
2013-06-10 15:25:00,64.9,63.1,29.80,North,355,5.0,6.0,94,0.01,,---,0.24,VWS V14.00,2013-06-10 19:25:00,
2013-06-10 15:30:00,64.9,63.1,29.80,NNE,22,4.0,6.0,94,0.00,,---,0.24,VWS V14.00,2013-06-10 19:30:00,
2013-06-10 15:35:00,64.7,62.9,29.80,North,350,3.0,7.0,94,0.00,,---,0.24,VWS V14.00,2013-06-10 19:35:00,
2013-06-10 15:40:00,64.7,62.9,29.80,NNW,328,3.0,7.0,94,0.00,,---,0.24,VWS V14.00,2013-06-10 19:40:00,
2013-06-10 15:45:00,64.4,62.6,29.80,NNW,340,4.0,7.0,94,0.00,,---,0.24,VWS V14.00,2013-06-10 19:45:00,
2013-06-10 15:50:00,64.2,62.4,29.80,North,355,3.0,8.0,94,0.00,,---,0.24,VWS V14.00,2013-06-10 19:50:00,
2013-06-10 15:55:00,64.0,62.2,29.80,NNW,338,4.0,8.0,94,0.00,,---,0.24,VWS V14.00,2013-06-10 19:55:00,
2013-06-10 16:00:00,63.7,62.0,29.80,North,355,5.0,9.0,94,0.00,,---,0.24,VWS V14.00,2013-06-10 20:00:00,
2013-06-10 16:05:00,63.5,61.8,29.80,North,5,5.0,9.0,94,0.00,,---,0.24,VWS V14.00,2013-06-10 20:05:00,
2013-06-10 16:10:00,63.2,61.5,29.80,North,355,3.0,11.0,94,0.00,,---,0.24,VWS V14.00,2013-06-10 20:10:00,
2013-06-10 16:15:00,63.1,61.3,29.80,North,360,7.0,11.0,94,0.00,,---,0.24,VWS V14.00,2013-06-10 20:15:00,
2013-06-10 16:20:00,63.0,61.2,29.80,North,355,2.0,11.0,94,0.00,,---,0.24,VWS V14.00,2013-06-10 20:20:00,
2013-06-10 16:25:00,63.0,61.2,29.80,North,5,3.0,11.0,94,0.00,,---,0.24,VWS V14.00,2013-06-10 20:25:00,
2013-06-10 16:30:00,63.1,61.3,29.80,North,9,1.0,6.0,94,0.00,,---,0.24,VWS V14.00,2013-06-10 20:30:00,
2013-06-10 16:35:00,63.1,61.3,29.80,NNE,22,2.0,6.0,94,0.00,,---,0.24,VWS V14.00,2013-06-10 20:35:00,
2013-06-10 16:40:00,63.2,61.5,29.80,North,355,3.0,6.0,94,0.00,,---,0.24,VWS V14.00,2013-06-10 20:40:00,
2013-06-10 16:45:00,63.4,62.0,29.80,North,355,0.0,6.0,95,0.00,,---,0.24,VWS V14.00,2013-06-10 20:45:00,
2013-06-10 16:50:00,63.6,62.2,29.79,North,9,0.0,6.0,95,0.00,,---,0.24,VWS V14.00,2013-06-10 20:50:00,
2013-06-10 16:55:00,63.7,62.2,29.79,North,5,0.0,6.0,95,0.00,,---,0.24,VWS V14.00,2013-06-10 20:55:00,
2013-06-10 17:00:00,63.8,62.0,29.79,North,9,3.0,4.0,94,0.00,,---,0.24,VWS V14.00,2013-06-10 21:00:00,
2013-06-10 17:05:00,63.9,62.1,29.79,NNE,28,2.0,4.0,94,0.00,,---,0.24,VWS V14.00,2013-06-10 21:05:00,
2013-06-10 17:10:00,64.0,62.2,29.79,North,360,4.0,5.0,94,0.00,,---,0.24,VWS V14.00,2013-06-10 21:10:00,
2013-06-10 17:15:00,64.0,62.2,29.79,North,11,2.0,5.0,94,0.00,,---,0.24,VWS V14.00,2013-06-10 21:15:00,
2013-06-10 17:20:00,63.9,62.1,29.79,NNE,19,2.0,6.0,94,0.00,,---,0.24,VWS V14.00,2013-06-10 21:20:00,
2013-06-10 17:25:00,63.9,62.1,29.79,North,355,1.0,6.0,94,0.00,,---,0.24,VWS V14.00,2013-06-10 21:25:00,
2013-06-10 17:30:00,63.8,62.3,29.79,North,11,4.0,7.0,95,0.00,,---,0.24,VWS V14.00,2013-06-10 21:30:00,
2013-06-10 17:35:00,63.8,62.3,29.79,North,360,2.0,7.0,95,0.00,,---,0.24,VWS V14.00,2013-06-10 21:35:00,
2013-06-10 17:40:00,63.6,62.2,29.79,North,355,2.0,7.0,95,0.00,,---,0.24,VWS V14.00,2013-06-10 21:40:00,
2013-06-10 17:45:00,63.5,62.0,29.79,North,355,1.0,7.0,95,0.00,,---,0.24,VWS V14.00,2013-06-10 21:45:00,
2013-06-10 17:50:00,63.3,61.5,29.79,North,351,4.0,11.0,94,0.00,,---,0.24,VWS V14.00,2013-06-10 21:50:00,
2013-06-10 17:55:00,63.1,61.3,29.80,NE,40,2.0,11.0,94,0.00,,---,0.24,VWS V14.00,2013-06-10 21:55:00,
2013-06-10 18:00:00,63.0,61.5,29.80,ENE,78,4.0,8.0,95,0.00,,---,0.24,VWS V14.00,2013-06-10 22:00:00,
2013-06-10 18:05:00,62.9,61.5,29.80,NNE,13,5.0,8.0,95,0.00,,---,0.24,VWS V14.00,2013-06-10 22:05:00,
2013-06-10 18:10:00,62.7,61.2,29.80,NNE,17,2.0,8.0,95,0.00,,---,0.24,VWS V14.00,2013-06-10 22:10:00,
2013-06-10 18:15:00,62.6,61.2,29.80,NNE,12,3.0,9.0,95,0.01,,---,0.25,VWS V14.00,2013-06-10 22:15:00,
2013-06-10 18:20:00,62.6,61.2,29.80,North,5,2.0,9.0,95,0.01,,---,0.25,VWS V14.00,2013-06-10 22:20:00,
2013-06-10 18:25:00,62.6,61.2,29.80,North,9,5.0,9.0,95,0.02,,---,0.26,VWS V14.00,2013-06-10 22:25:00,
2013-06-10 18:30:00,62.6,61.2,29.80,North,9,0.0,9.0,95,0.02,,---,0.26,VWS V14.00,2013-06-10 22:30:00,
2013-06-10 18:31:00,62.6,61.2,29.80,NE,40,1.0,6.0,95,0.03,,---,0.27,VWS V14.00,2013-06-10 22:31:00,
2013-06-10 18:36:00,62.5,61.0,29.80,NE,53,3.0,8.0,95,0.05,,---,0.29,VWS V14.00,2013-06-10 22:36:00,
2013-06-10 18:41:00,62.5,61.0,29.80,North,9,3.0,8.0,95,0.06,,---,0.30,VWS V14.00,2013-06-10 22:41:00,
2013-06-10 18:46:00,62.5,61.0,29.80,NNE,31,3.0,8.0,95,0.07,,---,0.31,VWS V14.00,2013-06-10 22:46:00,
2013-06-10 18:51:00,62.5,61.0,29.79,NNE,20,3.0,9.0,95,0.07,,---,0.31,VWS V14.00,2013-06-10 22:51:00,
2013-06-10 18:56:00,62.5,61.0,29.79,North,5,4.0,9.0,95,0.07,,---,0.31,VWS V14.00,2013-06-10 22:56:00,
2013-06-10 19:00:00,62.5,61.0,29.79,NNW,346,5.0,9.0,95,0.07,,---,0.31,VWS V14.00,2013-06-10 23:00:00,
2013-06-10 19:01:00,62.5,61.0,29.79,North,360,2.0,6.0,95,0.07,,---,0.31,VWS V14.00,2013-06-10 23:01:00,
2013-06-10 19:06:00,62.5,61.0,29.79,ENE,75,3.0,7.0,95,0.07,,---,0.31,VWS V14.00,2013-06-10 23:06:00,
2013-06-10 19:11:00,62.3,60.8,29.80,NNE,15,4.0,7.0,95,0.07,,---,0.31,VWS V14.00,2013-06-10 23:11:00,
2013-06-10 19:16:00,62.2,60.8,29.80,NNW,348,5.0,8.0,95,0.07,,---,0.31,VWS V14.00,2013-06-10 23:16:00,
2013-06-10 19:21:00,62.2,60.8,29.80,North,5,7.0,8.0,95,0.07,,---,0.31,VWS V14.00,2013-06-10 23:21:00,
2013-06-10 19:26:00,62.1,60.7,29.80,NNE,16,4.0,8.0,95,0.07,,---,0.31,VWS V14.00,2013-06-10 23:26:00,
2013-06-10 19:30:00,62.1,60.7,29.80,NNW,344,3.0,8.0,95,0.07,,---,0.31,VWS V14.00,2013-06-10 23:30:00,
2013-06-10 19:31:00,62.2,60.8,29.80,North,9,4.0,9.0,95,0.05,,---,0.31,VWS V14.00,2013-06-10 23:31:00,
2013-06-10 19:36:00,62.2,60.8,29.80,NNE,20,2.0,9.0,95,0.05,,---,0.31,VWS V14.00,2013-06-10 23:36:00,
2013-06-10 19:41:00,62.3,60.8,29.80,NNE,26,3.0,9.0,95,0.05,,---,0.31,VWS V14.00,2013-06-10 23:41:00,
2013-06-10 19:46:00,62.4,61.0,29.80,NNW,347,2.0,9.0,95,0.05,,---,0.31,VWS V14.00,2013-06-10 23:46:00,
2013-06-10 19:51:00,62.4,61.0,29.80,NNE,22,4.0,9.0,95,0.05,,---,0.31,VWS V14.00,2013-06-10 23:51:00,
2013-06-10 19:56:00,62.4,61.0,29.80,North,5,2.0,9.0,95,0.05,,---,0.31,VWS V14.00,2013-06-10 23:56:00,
2013-06-10 20:00:00,62.4,61.0,29.80,North,9,0.0,9.0,95,0.05,,---,0.31,VWS V14.00,2013-06-11 00:00:00,
2013-06-10 20:01:00,62.4,61.0,29.80,NNE,26,3.0,4.0,95,0.00,,---,0.31,VWS V14.00,2013-06-11 00:01:00,
2013-06-10 20:06:00,62.3,60.8,29.80,North,360,2.0,5.0,95,0.00,,---,0.31,VWS V14.00,2013-06-11 00:06:00,
2013-06-10 20:11:00,62.2,60.8,29.80,North,5,1.0,7.0,95,0.00,,---,0.31,VWS V14.00,2013-06-11 00:11:00,
2013-06-10 20:16:00,62.2,60.8,29.80,NNW,348,1.0,7.0,95,0.00,,---,0.31,VWS V14.00,2013-06-11 00:16:00,
2013-06-10 20:21:00,62.1,60.7,29.80,NE,53,3.0,7.0,95,0.00,,---,0.31,VWS V14.00,2013-06-11 00:21:00,
2013-06-10 20:26:00,62.2,60.8,29.80,NNE,19,1.0,7.0,95,0.00,,---,0.31,VWS V14.00,2013-06-11 00:26:00,
2013-06-10 20:30:00,62.2,60.8,29.80,NNE,18,1.0,7.0,95,0.00,,---,0.31,VWS V14.00,2013-06-11 00:30:00,
2013-06-10 20:31:00,62.2,60.8,29.80,NNE,17,0.0,4.0,95,0.00,,---,0.31,VWS V14.00,2013-06-11 00:31:00,
2013-06-10 20:36:00,62.2,60.8,29.80,NNE,14,3.0,5.0,95,0.00,,---,0.31,VWS V14.00,2013-06-11 00:36:00,
2013-06-10 20:41:00,62.2,60.8,29.80,NNE,15,3.0,5.0,95,0.00,,---,0.31,VWS V14.00,2013-06-11 00:41:00,
2013-06-10 20:46:00,62.1,60.7,29.81,North,355,3.0,6.0,95,0.00,,---,0.31,VWS V14.00,2013-06-11 00:46:00,
2013-06-10 20:51:00,62.0,60.6,29.80,North,350,3.0,8.0,95,0.00,,---,0.31,VWS V14.00,2013-06-11 00:51:00,
2013-06-10 20:56:00,61.9,60.5,29.80,North,349,3.0,8.0,95,0.00,,---,0.31,VWS V14.00,2013-06-11 00:56:00,
2013-06-10 21:00:00,62.0,60.6,29.80,NNW,348,2.0,8.0,95,0.00,,---,0.31,VWS V14.00,2013-06-11 01:00:00,
2013-06-10 21:01:00,61.9,60.8,29.80,North,5,1.0,6.0,96,0.00,,---,0.31,VWS V14.00,2013-06-11 01:01:00,
2013-06-10 21:06:00,61.9,60.8,29.80,NNW,344,5.0,6.0,96,0.00,,---,0.31,VWS V14.00,2013-06-11 01:06:00,
2013-06-10 21:11:00,61.9,60.8,29.80,NNE,12,3.0,6.0,96,0.00,,---,0.31,VWS V14.00,2013-06-11 01:11:00,
2013-06-10 21:16:00,61.9,60.8,29.80,North,5,2.0,6.0,96,0.00,,---,0.31,VWS V14.00,2013-06-11 01:16:00,
2013-06-10 21:21:00,61.9,60.8,29.80,NNE,20,4.0,6.0,96,0.00,,---,0.31,VWS V14.00,2013-06-11 01:21:00,
2013-06-10 21:26:00,62.0,60.8,29.81,North,9,3.0,6.0,96,0.00,,---,0.31,VWS V14.00,2013-06-11 01:26:00,
2013-06-10 21:30:00,62.0,60.8,29.81,North,9,1.0,6.0,96,0.00,,---,0.31,VWS V14.00,2013-06-11 01:30:00,
2013-06-10 21:31:00,62.0,60.8,29.81,North,355,2.0,6.0,96,0.00,,---,0.31,VWS V14.00,2013-06-11 01:31:00,
2013-06-10 21:36:00,61.8,60.7,29.81,NE,35,1.0,7.0,96,0.00,,---,0.31,VWS V14.00,2013-06-11 01:36:00,
2013-06-10 21:41:00,61.7,60.5,29.81,North,5,2.0,7.0,96,0.00,,---,0.31,VWS V14.00,2013-06-11 01:41:00,
2013-06-10 21:52:00,61.2,60.0,29.81,North,9,4.0,11.0,96,0.00,,---,0.31,VWS V14.00,2013-06-11 01:52:00,
2013-06-10 21:57:00,61.0,59.9,29.82,NNE,25,2.0,11.0,96,0.00,,---,0.31,VWS V14.00,2013-06-11 01:57:00,
2013-06-10 22:00:00,61.0,59.8,29.82,NNE,20,2.0,11.0,96,0.00,,---,0.31,VWS V14.00,2013-06-11 02:00:00,
2013-06-10 22:02:00,61.0,59.9,29.82,North,9,3.0,5.0,96,0.00,,---,0.31,VWS V14.00,2013-06-11 02:02:00,
2013-06-10 22:07:00,61.0,59.9,29.82,North,5,2.0,5.0,96,0.00,,---,0.31,VWS V14.00,2013-06-11 02:07:00,
2013-06-10 22:12:00,61.1,60.0,29.82,North,10,0.0,6.0,96,0.00,,---,0.31,VWS V14.00,2013-06-11 02:12:00,
2013-06-10 22:17:00,61.2,60.0,29.82,North,10,0.0,6.0,96,0.00,,---,0.31,VWS V14.00,2013-06-11 02:17:00,
2013-06-10 22:22:00,61.3,60.2,29.82,North,10,0.0,6.0,96,0.00,,---,0.31,VWS V14.00,2013-06-11 02:22:00,
2013-06-10 22:27:00,61.4,60.5,29.82,NNE,12,3.0,6.0,97,0.00,,---,0.31,VWS V14.00,2013-06-11 02:27:00,
2013-06-10 22:30:00,61.5,60.6,29.82,NNE,13,1.0,6.0,97,0.00,,---,0.31,VWS V14.00,2013-06-11 02:30:00,
2013-06-10 22:32:00,61.5,60.3,29.82,North,5,3.0,7.0,96,0.00,,---,0.31,VWS V14.00,2013-06-11 02:32:00,
2013-06-10 22:37:00,61.5,60.3,29.82,NNE,13,2.0,7.0,96,0.00,,---,0.31,VWS V14.00,2013-06-11 02:37:00,
2013-06-10 22:42:00,61.5,60.3,29.82,NNE,12,0.0,7.0,96,0.00,,---,0.31,VWS V14.00,2013-06-11 02:42:00,
2013-06-10 22:47:00,61.5,60.6,29.82,NNE,23,0.0,7.0,97,0.00,,---,0.31,VWS V14.00,2013-06-11 02:47:00,
2013-06-10 22:52:00,61.4,60.2,29.82,NNE,23,1.0,7.0,96,0.00,,---,0.31,VWS V14.00,2013-06-11 02:52:00,
2013-06-10 22:57:00,61.5,60.3,29.83,NNE,23,2.0,7.0,96,0.00,,---,0.31,VWS V14.00,2013-06-11 02:57:00,
2013-06-10 23:00:00,61.5,60.3,29.83,NNE,24,2.0,7.0,96,0.00,,---,0.31,VWS V14.00,2013-06-11 03:00:00,
2013-06-10 23:02:00,61.5,60.6,29.83,NNE,23,3.0,3.0,97,0.00,,---,0.31,VWS V14.00,2013-06-11 03:02:00,
2013-06-10 23:07:00,61.5,60.6,29.82,NNE,24,1.0,5.0,97,0.00,,---,0.31,VWS V14.00,2013-06-11 03:07:00,
2013-06-10 23:12:00,61.6,60.7,29.82,NNE,24,0.0,5.0,97,0.00,,---,0.31,VWS V14.00,2013-06-11 03:12:00,
2013-06-10 23:17:00,61.6,60.7,29.82,NNE,18,3.0,5.0,97,0.00,,---,0.31,VWS V14.00,2013-06-11 03:17:00,
2013-06-10 23:22:00,61.6,60.7,29.82,North,360,3.0,6.0,97,0.00,,---,0.31,VWS V14.00,2013-06-11 03:22:00,
2013-06-10 23:27:00,61.6,60.7,29.82,North,5,0.0,0.0,97,0.00,,---,0.31,VWS V14.00,2013-06-11 03:27:00,
2013-06-10 23:30:00,61.6,60.7,29.82,North,5,0.0,6.0,97,0.00,,---,0.31,VWS V14.00,2013-06-11 03:30:00,
2013-06-10 23:32:00,61.5,60.6,29.82,NE,37,0.0,6.0,97,0.00,,---,0.31,VWS V14.00,2013-06-11 03:32:00,
2013-06-10 23:37:00,61.5,60.6,29.82,North,355,1.0,6.0,97,0.00,,---,0.31,VWS V14.00,2013-06-11 03:37:00,
2013-06-10 23:42:00,61.5,60.6,29.82,NNE,32,2.0,6.0,97,0.00,,---,0.31,VWS V14.00,2013-06-11 03:42:00,
2013-06-10 23:47:00,61.6,60.7,29.82,North,5,2.0,6.0,97,0.00,,---,0.31,VWS V14.00,2013-06-11 03:47:00,
2013-06-10 23:52:00,61.7,60.8,29.82,North,5,2.0,6.0,97,0.00,,---,0.31,VWS V14.00,2013-06-11 03:52:00,
2013-06-10 23:57:00,61.7,60.8,29.83,NNW,344,3.0,3.0,97,0.00,,---,0.00,VWS V14.00,2013-06-11 03:57:00,